Tracking 19281 objects as of 16-Nov-2018
HD Live streaming from Space Station
objects crossing your sky now

NSTAR A

Track NSTAR A now!
NSTAR A is classified as:


NORAD ID: 23651
Int'l Code: 1995-044A
Perigee: 36,035.3 km
Apogee: 36,200.8 km
Inclination: 10.0 °
Period: 1,452.7 minutes
Semi major axis: 42489 km
RCS: 15.8489 m2 (large)
Launch date: August 29, 1995
Source: Japan (JPN)
Launch site: FRENCH GUIANA (FRGUI)

Voice and TV broadcast to Japan and neighboring region.
aabbcc
Your satellite tracking list
Your tracking list is empty




NASA's NSSDC Master Catalog

Two Line Element Set (TLE):
1 23651U 95044A   18318.74642722 -.00000086  00000-0  00000+0 0  9998
2 23651   9.9647  39.6368 0019486 297.0720  83.7837  0.99125968 84494
Source of the keplerian elements: AFSPC